Total_Precipitation_Accumulation
2.00 2.35 2.19 1.87 1.85 1.88 1.98 2.23 2.51 2.25 2.04 2.04 2.15 2.22 2.27 2.26 2.30 2.09 1.91 1.80 1.58 1.42 1.36 1.31 1.30 1.31 1.33 1.38 1.47 1.63 1.80 1.92 2.07 2.28 2.57 2.89 3.21 3.57
2.13 2.22 2.16 1.98 2.00 2.01 2.08 2.26 2.53 2.49 2.21 2.07 2.30 2.37 2.24 2.07 2.27 2.18 1.97 1.85 1.56 1.36 1.22 1.20 1.23 1.26 1.28 1.30 1.28 1.34 1.42 1.51 1.57 1.63 1.70 1.79 2.00 2.38
2.15 2.12 2.09 2.28 2.28 2.09 2.16 2.22 2.42 2.63 2.46 2.25 2.36 2.36 2.25 2.06 2.06 2.04 1.95 1.86 1.64 1.56 1.35 1.26 1.21 1.20 1.20 1.23 1.29 1.33 1.32 1.31 1.29 1.31 1.37 1.43 1.47 1.54
2.21 2.38 2.32 2.40 2.33 2.22 2.32 2.33 2.43 2.69 2.65 2.46 2.41 2.41 2.31 2.23 2.12 1.93 1.70 1.64 1.64 1.76 1.55 1.38 1.30 1.27 1.23 1.18 1.15 1.13 1.10 1.10 1.10 1.07 1.09 1.13 1.19 1.32
2.02 2.26 2.53 2.89 2.73 2.52 2.39 2.32 2.38 2.48 2.69 2.51 2.39 2.53 2.45 2.37 2.24 1.93 1.72 1.65 1.43 1.52 1.55 1.40 1.24 1.14 1.09 1.05 1.04 1.01 0.96 0.95 0.95 0.98 1.02 1.05 1.08 1.13
1.92 2.03 2.18 2.45 2.61 2.71 2.47 2.28 2.35 2.47 2.62 2.60 2.62 2.84 2.90 2.78 2.49 2.14 1.98 1.83 1.66 1.40 1.44 1.34 1.24 1.14 1.08 1.03 1.00 0.98 0.97 0.99 1.02 1.04 1.06 1.09 1.12 1.14
1.97 1.93 1.80 1.92 2.09 2.26 2.18 2.42 2.53 2.48 2.56 2.63 2.81 3.20 3.22 3.00 2.51 2.24 2.13 2.06 1.85 1.57 1.47 1.28 1.17 1.06 1.05 1.08 1.05 1.01 0.96 0.94 0.95 0.98 1.03 1.07 1.09 1.12
2.06 2.01 1.84 1.73 1.75 1.87 1.93 2.09 2.31 2.34 2.41 2.57 2.71 2.95 3.02 2.93 2.70 2.45 2.22 2.08 1.87 1.66 1.60 1.50 1.32 1.21 1.10 1.01 1.11 1.10 1.07 1.04 0.99 0.95 0.93 0.96 1.01 1.03
2.18 2.22 1.86 1.56 1.74 1.71 1.80 1.83 1.78 1.89 2.05 2.24 2.42 2.54 2.85 2.97 2.92 2.52 2.36 2.20 1.91 1.77 1.75 1.62 1.52 1.33 1.13 1.08 1.16 1.04 1.04 1.04 0.98 0.92 0.88 0.84 0.85 0.90
1.86 1.88 1.86 1.70 1.62 1.67 1.68 1.58 1.49 1.52 1.64 1.68 1.77 2.05 2.40 2.84 3.06 2.80 2.64 2.45 2.16 1.89 1.69 1.60 1.53 1.41 1.22 1.13 1.21 1.08 0.98 0.95 0.92 0.84 0.79 0.79 0.79 0.81
1.62 1.65 1.69 1.59 1.64 1.60 1.50 1.45 1.41 1.36 1.39 1.43 1.42 1.59 1.90 2.26 2.68 2.82 2.55 2.21 1.98 1.74 1.64 1.54 1.42 1.50 1.46 1.30 1.24 1.27 1.08 0.95 0.89 0.86 0.83 0.80 0.79 0.83
1.84 1.81 1.77 1.65 1.62 1.52 1.39 1.37 1.27 1.19 1.27 1.25 1.19 1.21 1.32 1.63 2.09 2.25 2.34 2.15 1.87 1.71 1.45 1.45 1.39 1.47 1.51 1.29 1.12 1.11 1.07 1.05 0.99 0.90 0.88 0.88 0.92 0.79
2.04 2.08 2.03 1.91 1.59 1.43 1.32 1.24 1.21 1.31 1.36 1.32 1.26 1.27 1.43 1.62 1.80 2.06 2.26 2.26 2.02 1.70 1.51 1.55 1.46 1.49 1.50 1.33 1.20 1.12 1.03 1.00 1.00 1.01 1.00 0.99 0.99 0.90
1.98 2.10 2.11 2.00 1.74 1.56 1.40 1.28 1.29 1.25 1.24 1.31 1.29 1.27 1.31 1.44 1.65 1.94 2.17 2.19 2.03 1.79 1.69 1.70 1.61 1.53 1.53 1.39 1.19 1.12 1.10 1.06 1.02 0.97 0.94 1.08 1.04 1.01
1.70 2.01 2.12 2.00 1.80 1.55 1.43 1.38 1.26 1.14 1.16 1.16 1.08 1.04 1.10 1.22 1.43 1.75 2.08 2.24 2.15 1.90 1.74 1.63 1.58 1.63 1.66 1.45 1.21 1.09 1.12 1.11 1.02 0.99 0.96 0.95 0.90 0.91
1.42 1.62 1.72 1.69 1.54 1.43 1.34 1.23 1.11 1.09 1.04 1.00 0.98 1.02 1.11 1.19 1.29 1.45 1.80 2.09 2.16 1.94 1.76 1.66 1.59 1.67 1.66 1.53 1.38 1.13 1.04 1.05 0.99 0.98 1.00 0.96 0.94 0.90
1.42 1.45 1.54 1.62 1.61 1.54 1.51 1.41 1.29 1.20 1.11 1.05 1.11 1.14 1.20 1.26 1.30 1.43 1.70 1.93 1.92 1.73 1.64 1.68 1.71 1.73 1.68 1.67 1.52 1.19 1.04 0.98 0.98 1.06 1.12 1.06 0.98 0.96
1.15 1.21 1.39 1.56 1.68 1.69 1.71 1.67 1.54 1.41 1.31 1.29 1.32 1.32 1.31 1.37 1.40 1.44 1.62 1.80 1.81 1.71 1.62 1.58 1.71 1.87 1.83 1.63 1.42 1.27 1.11 1.00 1.00 1.11 1.15 1.12 1.02 0.97
0.98 1.12 1.28 1.41 1.58 1.72 1.74 1.68 1.59 1.57 1.60 1.58 1.56 1.53 1.49 1.48 1.51 1.50 1.53 1.67 1.72 1.67 1.68 1.70 1.74 1.79 1.75 1.42 1.14 1.12 1.20 1.19 1.24 1.25 1.22 1.15 1.03 0.99
1.04 1.20 1.35 1.48 1.61 1.77 1.80 1.75 1.72 1.71 1.72 1.69 1.70 1.69 1.65 1.61 1.60 1.56 1.51 1.53 1.64 1.73 1.75 1.75 1.69 1.61 1.54 1.44 1.31 1.16 1.16 1.30 1.39 1.35 1.30 1.32 1.25 1.22
1.31 1.37 1.40 1.48 1.63 1.77 1.89 1.94 1.95 1.89 1.82 1.80 1.77 1.78 1.79 1.73 1.62 1.60 1.66 1.68 1.66 1.70 1.63 1.50 1.54 1.83 1.96 1.97 1.72 1.31 1.22 1.31 1.43 1.48 1.51 1.59 1.46 1.35
1.35 1.40 1.42 1.42 1.55 1.67 1.77 1.85 1.90 1.87 1.84 1.84 1.81 1.78 1.77 1.77 1.67 1.67 1.78 1.78 1.65 1.56 1.54 1.56 1.77 2.01 2.05 1.97 1.67 1.45 1.40 1.46 1.54 1.57 1.57 1.56 1.49 1.34
1.20 1.23 1.26 1.33 1.43 1.57 1.65 1.75 1.83 1.81 1.75 1.75 1.83 1.82 1.75 1.75 1.72 1.71 1.74 1.81 1.79 1.72 1.74 1.75 1.80 1.84 1.83 1.83 1.77 1.61 1.51 1.55 1.61 1.56 1.40 1.32 1.27 1.20